OBJECT D

Last updated on April 6, 2019, 3:14 a.m. UTC

1 44115U 19020D   19095.59994194 -.00000020  00000-0  00000+0 0  9993
2 44115   0.0363 339.4759 0000930  51.7120 328.8128  5.12091838    40

Satellite is not in orbit.